Location: Béaulencourt
(50.0796°N, 2.8795°E)
Time: 00:54:51
(UTC+00:00)

Cosmos 1869 Rocket - Pass Details

Date: 20 January 2026
Orbit: 597 x 626 km, 82.5° (Epoch: 17 February)

Event Time Altitude Azimuth Distance (km) Brightness Sun altitude
Rises 06:55:00 0° 189° (S) 2,900 7.2 -6.8°
Reaches altitude 10° 06:57:14 10° 189° (S) 1,998 6.4 -6.5°
Maximum altitude 07:01:40 89° 272° (W) 634 3.6 -5.9°
Drops below altitude 10° 07:06:08 10° 10° (N) 2,008 6.0 -5.2°
Sets 07:08:23 0° 11° (N) 2,917 6.9 -4.9°
